Regional Weather Roundup
Issued by NWS

Home | Current Version | Previous Version | Text Only | Print | Product List | Glossary Off
Versions: 1 2 3 4 5 6 7 8 9 10 11 12 13 14 15 16 17 18 19 20 21 22 23 24 25 26 27 28 29 30 31 32 33 34 35 36 37 38 39 40 41 42 43 44 45 46 47 48 49 50

000
ASUS43 KMKX 050000
RWRWI

WISCONSIN REGIONAL WEATHER ROUNDUP
NATIONAL WEATHER SERVICE MILWAUKEE/SULLIVAN WI
700 PM CDT MON MAY 04 2015

NOTE: "FAIR" INDICATES FEW OR NO CLOUDS BELOW 12,000 FEET WITH NO
SIGNIFICANT WEATHER AND/OR OBSTRUCTIONS TO VISIBILITY.

WIZ001-002-006>008-014>016-023>028-050100-
NORTHWEST WISCONSIN

CITY           SKY/WX    TMP DP  RH WIND       PRES   REMARKS
SUPERIOR ARPT  MOSUNNY   66  17  15 CALM      30.18S
ASHLAND        MOSUNNY   63  25  23 E3        30.20R
6HR MIN TEMP:  63; 6HR MAX TEMP:  68;

HAYWARD        MOSUNNY   66  16  14 CALM      30.19R
6HR MIN TEMP:  63; 6HR MAX TEMP:  68;

SIREN          MOSUNNY   67  19  15 N9        30.18S
CUMBERLAND     MOSUNNY   64  23  20 N6        30.18R
RICE LAKE      MOSUNNY   67  20  16 N3        30.19R
CHETEK         MOSUNNY   65  30  26 CALM      30.17S
LADYSMITH      MOSUNNY   66  29  24 CALM      30.19R
6HR MIN TEMP:  64; 6HR MAX TEMP:  69;

EAU CLAIRE     NOT AVBL
MENOMONIE      PTSUNNY   68  22  17 NE5       30.17S
6HR MIN TEMP:  66; 6HR MAX TEMP:  70;

NEW RICHMOND   PTSUNNY   68  24  19 CALM      30.17S
OSCEOLA        PTSUNNY   67  29  24 N5        30.19S
$$

WIZ003>005-009-010-017-018-050100-
NORTH CENTRAL WISCONSIN

CITY           SKY/WX    TMP DP  RH WIND       PRES   REMARKS
MANITOWISH WTR MOSUNNY   60  20  21 N6        30.21R
ARBOR VITAE    MOSUNNY   62  16  16 N7        30.20R
WOODRUFF       MOSUNNY   62  16  16 N7        30.20R
RHINELANDER    MOSUNNY   64  23  21 NE3       30.19S
6HR MIN TEMP:  61; 6HR MAX TEMP:  67;

EAGLE RIVER    MOSUNNY   63  17  17 N3        30.19R
LAND O LAKES   SUNNY     63  20  19 N6        30.21R
PHILLIPS       MOSUNNY   63  25  23 N7        30.18R
6HR MIN TEMP:  61; 6HR MAX TEMP:  66;

TOMAHAWK       MOSUNNY   64  24  21 CALM      30.18S
MEDFORD        PTSUNNY   65  30  26 CALM      30.17S
MERRILL        PTSUNNY   67  30  25 CALM      30.17S
$$

WIZ029-030-035-036-043>047-050100-
CENTRAL WISCONSIN

CITY           SKY/WX    TMP DP  RH WIND       PRES   REMARKS
WAUSAU         CLOUDY    67  28  23 NE5       30.15S
6HR MIN TEMP:  66; 6HR MAX TEMP:  70;

MOSINEE        SUNNY     64  28  25 N5        30.18S
MARSHFIELD     CLOUDY    65  41  41 W3        30.16F
6HR MIN TEMP:  65; 6HR MAX TEMP:  70;

STEVENS POINT  CLOUDY    67  32  27 CALM      30.16S
WAUPACA        MOCLDY    72  33  23 N3        30.14S
WAUTOMA        NOT AVBL
WISC RAPIDS    PTSUNNY   68  34  28 N6        30.16S
6HR MIN TEMP:  68; 6HR MAX TEMP:  73;

CAMP DOUGLAS   NOT AVBL
$$

WIZ011>013-019>022-031-037>040-048>050-050100-
NORTHEAST WISCONSIN

CITY           SKY/WX    TMP DP  RH WIND       PRES   REMARKS
ANTIGO         PTSUNNY   64  33  31 CALM      30.19R
SHAWANO        MOCLDY    66  41  40 SE15G21   30.17R
OCONTO         MOCLDY    59  41  49 E9        30.19R
STURGEON BAY   MOCLDY    54  36  50 E7        30.23R
6HR MIN TEMP:  54; 6HR MAX TEMP:  68;

GREEN BAY      MOCLDY    61  40  45 E14       30.19R
6HR MIN TEMP:  61; 6HR MAX TEMP:  75;

MANITOWOC      NOT AVBL
APPLETON       MOCLDY    63  39  42 SE12      30.16R
CLINTONVILLE   MOCLDY    64  37  36 E12G17    30.16R
OSHKOSH        PTCLDY    63  41  44 SE12      30.15R
6HR MIN TEMP:  63; 6HR MAX TEMP:  71;

$$

WIZ032>034-041-042-053>061-050100-
SOUTHWEST WISCONSIN

CITY           SKY/WX    TMP DP  RH WIND       PRES   REMARKS
LA CROSSE      CLOUDY    69  44  40 NW10      30.13S
6HR MIN TEMP:  69; 6HR MAX TEMP:  75;

SPARTA         CLOUDY    70  33  25 N7        30.15S
VIROQUA        CLOUDY    67  42  40 NE7       30.14S
BOSCOBEL       CLOUDY    73  48  41 VRB3      30.11S
6HR MIN TEMP:  73; 6HR MAX TEMP:  77;

PRAIRIE DU CHI CLOUDY    71  44  37 N6        30.10S
PLATTEVILLE    CLOUDY    71  56  61 E6        30.11S
$$

WIZ056-057-062-063-064-067-068-050100-
SOUTH CENTRAL WISCONSIN

CITY           SKY/WX    TMP DP  RH WIND       PRES   REMARKS
REEDSBURG      CLOUDY    71  45  39 N7        30.12S
BARABOO/DELLS  CLOUDY    70  46  43 NE5       30.13
LONE ROCK      NOT AVBL
MINERAL POINT  CLOUDY    70  52  52 E6        30.12S
MADISON        CLOUDY    69  54  58 E14       30.12S
6HR MIN TEMP:  69; 6HR MAX TEMP:  75;

MIDDLETON      PTSUNNY   71  51  47 E7        30.13S
WATERTOWN      MOCLDY    64  40  40 E12       30.14S
MONROE         MOCLDY    68  55  64 NE5       30.11S
JANESVILLE     MOCLDY    70  54  56 E15G21    30.13R
$$

WIZ051-052-058>065-066-070>072-050100-
SOUTHEAST WISCONSIN

CITY           SKY/WX    TMP DP  RH WIND       PRES   REMARKS
MILWAUKEE      MOCLDY    55  38  52 E5        30.17R
6HR MIN TEMP:  55; 6HR MAX TEMP:  66;

WAUKESHA       CLEAR     59  37  44 E12       30.18R
MILWAUKEE/TIMM NOT AVBL
RACINE         PTCLDY    54  38  54 NE8       30.18S
6HR MIN TEMP:  54; 6HR MAX TEMP:  69;

BURLINGTON     CLOUDY    63  35  35 E10       30.16S
KENOSHA        MOCLDY    58  39  49 E8        30.17R
6HR MIN TEMP:  58; 6HR MAX TEMP:  69;

FOND DU LAC    PTCLDY    64  39  39 E12       30.15S
6HR MIN TEMP:  64; 6HR MAX TEMP:  73;

SHEBOYGAN      PTCLDY    54  39  57 NE10      30.18S
6HR MIN TEMP:  54; 6HR MAX TEMP:  69;

WEST BEND      MOCLDY    61  34  36 E9        30.17S
JUNEAU         MOCLDY    66  42  42 E12       30.16R
$$

LSZ147-162-050100-
LAKE SUPERIOR

STATION/POSITION TIME  TEMP    WIND        PRES    WAVE
                       AIR SEA DIR/SP/G            HT/PER
                 (UTC) (F)     (DEG/KT/KT) (MB)    (FT/S)
W MID LAKE BUOY  2250   43 36  200/ 12/ 12 1022.9F   1
DEVILS ISLAND    2300   61     170/  5/  8 1022.5R
PORT WING        2300   60     320/  2/  3 1022.4
SAXON HARBOR     2300   60        CALM     1022.4
$$

LMZ867-665-643>646-050100-
LAKE MICHIGAN

STATION/POSITION TIME  TEMP    WIND        PRES    WAVE
                       AIR SEA DIR/SP/G            HT/PER
                 (UTC) (F)     (DEG/KT/KT) (MB)    (FT/S)
CHAMBERS ISLAND  2300   58      80/  7/ 13 1022.4R
NORTHPORT PIER   2300   51     140/  5/ 18 1022.4R
SISTER BAY       2332   57     110/  9/ 14   N/A
KEWAUNEE LAKESHO 2300   47      90/  3/ 10 1021.7R
SHEBOYGAN LAKESH 2300   50      40/ 11/ 15 1022.3R
PORT WASHINGTON  2340   53      30/  8/  9 1022.4S
ATWATER BUOY     2300   49     320/  2/  4 1023.0S
MILWAUKEE LAKESH 2300   51      30/  7/  7   N/A
KENOSHA   LAKESH 2300   49      10/ 10/ 11 1021.3R
$$

TC  - TEMPERATURE IN CELSIUS
VSB - VISIBILITY IN STATUTE MILES
WCI - WIND CHILL INDEX
HX  - HEAT INDEX




USA.gov is the U.S. government's official web portal to all federal, state and local government web resources and services.